Starlink 2533

operational
NORAD ID: 48294 Int'l Des: 2021-036 Owner: SPXS Country: US Constellation: starlink
LEOCIRCULARSTARLINK_TYPE

Über Starlink 2533

Beschreibung wird geladen...

Live-Position

3D-Globus wird geladen...

Nächste Überflüge

Höhenverlauf

Altitude vs Time

uPlot chart will show altitude changes over time

Zweizeiliger Elementsatz

1 48294U 21036U 25354.20706850 .00000588 00000-0 58373-4 0 9997
2 48294 53.0569 78.4365 0001251 81.1296 278.9835 15.06392749256333
Epoch: 20. Dez. 2025 • Age: 8 hours

Aktueller Status

Höhe 554.4 km
Geschwindigkeit 7.58 km/s
Subsatellitenpunkt -23.95°S, 136.26°E
Startdatum 29. Apr. 2021
Alter 4.6 years
Typ internet

Technische Details

Klassifizierung Payload
Masse 260.00 kg
Trockenmasse 248.00 kg
Gesamtmasse 260.00 kg
Länge 0.20 m
Durchmesser 2.80 m
Spannweite 9.00 m
Form Box + pan
Hersteller SPXS
Bus-Typ Starlink
Phasenstatus In Orbit
Besitzer/Staat SPXS/US

Große Konstellationen

Loading constellations...